Hourly Weather Roundup
Issued by NWS Central Illinois

Home | Current Version | Previous Version | Text Only | Print | Product List | Glossary On
Versions: 1 2 3 4 5 6 7 8 9 10 11 12 13 14 15 16 17 18 19 20 21 22 23 24 25 26 27 28 29 30 31 32 33 34 35 36 37 38 39 40 41 42 43 44 45 46 47 48 49 50
000
NZUS43 KILX 221710
HWRILX

Area Weather Roundup
National Weather Service Lincoln IL
1100 AM CST WED NOV 22 2017

NOTE:  "FAIR" indicates few or no clouds below 12,000 feet, with
       no sigificant weather and/or obstructions to visibility.


CITY           SKY/WX    TMP DP  RH WIND       PRES   REMARKS
Bloomington    SUNNY     32  14  47 VRB3      30.38F
Champaign      SUNNY     33  18  53 N6        30.38S WCI  28
Danville       SUNNY     32  22  67 CALM      30.34S
Decatur        SUNNY     32  17  54 N3        30.39F
Effingham      SUNNY     33  19  57 NW6       30.41S WCI  28
Flora          SUNNY     34  21  59 N5        30.40S WCI  30
Galesburg      SUNNY     32  20  62 W5        30.41S WCI  27
Jacksonville   SUNNY     30  17  57 CALM      30.42S
Lacon          SUNNY     31  16  54 W3        30.40S
Lawrenceville  SUNNY     36  22  56 VRB3      30.38F
Litchfield     SUNNY     31  20  62 NW3       30.40F
$$


CITY           SKY/WX    TMP DP  RH WIND       PRES   REMARKS
Lincoln        SUNNY     32  19  57 CALM      30.39F
Macomb         SUNNY     31  19  61 CALM      30.43F
Mattoon        SUNNY     32  18  56 N6        30.37F WCI  26
Mt Carmel AP   SUNNY     34  21  57 CALM      30.37F
Olney-Noble AP SUNNY     34  15  45 N5        30.39S WCI  29
Paris AP       SUNNY     32  22  68 CALM      30.38F
Peoria         SUNNY     31  15  52 SW3       30.41R
Pontiac        SUNNY     31  18  57 NW7       30.40S WCI  24
Rantoul        SUNNY     33  21  62 N5        30.38S WCI  28
Robinson       SUNNY     34  21  59 N7        30.39F WCI  27
Springfield    SUNNY     33  19  56 SW3       30.41F
Taylorville    SUNNY     31  17  56 CALM      30.41S
$$

...REGIONAL REPORTS...


CITY           SKY/WX    TMP DP  RH WIND       PRES   REMARKS
Chicago O`Hare MOSUNNY   30  15  53 VRB6      30.35F WCI  24
Kankakee       SUNNY     32  17  54 W6        30.38F WCI  26
Moline         SUNNY     31  16  54 W5        30.39F WCI  26
Mount Sterling SUNNY     30  17  58 CALM      30.41S
Mount Vernon   SUNNY     35  20  54 VRB3      30.39F
Pittsfield     SUNNY     32  18  57 NW5       30.43R WCI  27
Quincy         SUNNY     30  17  58 W3        30.40F
Rockford       SUNNY     28  13  53 S3        30.39S
$$


CITY           SKY/WX    TMP DP  RH WIND       PRES   REMARKS
Burlington     SUNNY     30  18  60 VRB3      30.39F
Cedar Rapids   SUNNY     28  15  58 SW9       30.36F WCI  19
Des Moines     MOSUNNY   27  13  55 SW7       30.37F WCI  19
Kirksville     SUNNY     32  16  51 W5        30.40F WCI  27
Ottumwa        SUNNY     29  15  56 SW8       30.39F WCI  21
St Louis       SUNNY     32  19  58 CALM      30.41F
$$


CITY           SKY/WX    TMP DP  RH WIND       PRES   REMARKS
Terre Haute    SUNNY     34  21  59 VRB3      30.37F
Evansville     SUNNY     37  22  54 NW6       30.37F WCI  32
Indianapolis   MOSUNNY   36  23  59 CALM      30.34F
Lafayette      SUNNY     34  25  69 N7        30.35F WCI  28
Madison        MOSUNNY   25  14  63 VRB7      30.34F WCI  17
Milwaukee      MOSUNNY   30  14  51 W8        30.34S WCI  22
$$





USA.gov is the U.S. government's official web portal to all federal, state and local government web resources and services.